Temperature
18 18 18 18 18 18 18 18 18 18 18 18 18 18 18 18 17 18 18 18 17 17 17 17 17 17 17 17 17 17 17 17 16 16 16 16 16 16 16 16 16 16 16
18 18 18 18 18 18 18 18 18 18 18 18 18 18 18 18 18 18 18 18 17 17 17 17 17 17 17 17 17 17 17 17 17 16 16 16 16 16 16 16 16 16 15
18 18 18 18 18 18 18 18 18 17 17 18 18 18 18 18 18 18 18 18 17 17 17 17 17 17 17 17 17 17 17 17 17 16 16 16 16 16 16 16 16 16 15
18 18 18 18 18 18 18 18 18 18 18 18 18 18 18 17 18 18 18 17 17 17 17 17 17 17 17 17 17 17 17 17 17 16 16 16 16 16 16 16 16 15 15
18 18 18 18 18 18 18 18 18 18 18 18 18 18 18 18 18 18 18 17 17 17 17 17 17 17 17 17 17 17 17 17 17 16 16 16 16 16 16 16 16 15 15
18 18 18 18 18 18 18 18 18 18 18 18 17 18 18 18 18 18 18 18 18 17 17 17 17 17 17 17 17 17 17 17 17 16 16 16 16 16 16 16 15 15 15
18 18 18 18 18 18 18 18 18 18 18 18 17 18 18 18 18 18 18 18 18 17 17 17 17 17 17 17 17 17 17 17 17 16 16 16 16 16 16 15 15 15 15
18 18 18 18 18 18 18 18 18 18 18 18 17 17 17 18 18 18 18 18 18 17 17 17 17 17 17 17 17 17 17 17 16 16 16 16 16 16 16 15 15 15 15
18 18 18 18 18 18 18 18 18 18 18 18 17 17 17 17 18 18 18 17 17 17 17 17 17 17 17 17 17 17 17 17 16 16 16 16 16 16 15 15 15 15 15
18 18 18 18 18 18 18 18 17 17 17 17 17 17 18 18 17 17 17 17 17 17 17 17 17 17 17 17 17 17 17 16 16 16 16 16 16 15 15 15 15 15 15
18 18 18 18 18 18 18 17 17 17 17 17 17 17 17 17 17 17 17 17 17 17 17 17 17 17 17 16 16 16 16 16 16 16 16 15 15 15 15 15 15 15 14
18 18 18 17 17 17 17 17 17 17 17 17 17 17 17 17 17 17 17 17 17 17 16 16 16 16 16 16 16 16 16 16 16 15 15 15 15 15 15 15 14 14 14
18 18 18 17 17 17 17 17 17 17 17 17 17 17 17 17 17 17 17 17 16 16 16 16 16 16 16 16 16 16 16 15 15 15 15 15 15 14 14 14 14 14 14
18 18 18 17 17 17 17 17 17 17 17 17 17 17 17 17 17 17 17 17 16 16 16 16 16 16 16 15 15 15 15 15 15 15 15 14 14 14 14 14 13 13 13
18 17 17 17 17 17 17 17 17 17 17 17 17 17 17 17 17 17 17 16 16 16 15 15 15 15 15 15 15 15 15 15 14 14 14 14 14 14 13 13 13 13 13
18 18 17 17 17 17 17 17 17 17 17 17 16 16 16 16 16 16 16 16 16 16 16 15 15 15 15 15 14 14 14 14 14 14 14 14 13 13 13 13 12 12 12
18 17 17 17 17 17 16 16 16 16 16 16 16 16 16 16 16 16 16 16 16 16 15 15 15 15 14 14 14 14 14 14 14 13 13 13 13 13 12 12 12 12 12
17 17 17 17 17 17 16 16 16 16 16 16 16 16 16 16 16 16 16 16 15 15 15 15 14 14 14 14 14 13 13 13 13 13 13 12 12 12 12 12 12 11 11
17 17 17 17 17 16 16 16 16 16 16 16 16 16 15 15 15 15 15 15 15 15 15 15 14 14 13 13 13 13 13 13 12 12 12 12 11 11 11 11 11 11 11
17 17 17 16 16 16 16 16 16 16 15 15 15 15 15 15 15 15 15 15 15 14 14 14 14 13 13 13 13 12 12 12 12 11 11 11 11 11 11 11 10 10 10
16 16 16 16 16 16 15 15 15 15 15 15 15 15 15 14 14 14 14 14 14 14 14 14 13 13 13 12 12 12 12 11 11 11 11 11 10 10 10 10 10 10 10
16 16 16 16 15 15 15 15 15 15 15 15 15 14 14 14 14 14 14 14 13 13 13 13 13 12 12 12 12 12 11 11 11 11 11 10 10 10 10 10 10 9 9
16 16 16 15 15 15 15 15 14 14 14 14 14 14 14 14 14 14 14 13 13 13 13 12 12 12 12 12 12 11 11 11 11 11 10 10 10 10 10 10 9 9 9
15 15 15 15 15 15 14 14 14 14 14 14 13 13 13 13 13 13 13 13 13 12 12 12 12 12 12 12 11 11 11 11 11 10 10 10 10 10 9 9 9 9 9
15 15 15 15 14 14 14 14 14 14 13 13 13 13 13 13 13 13 13 12 12 12 12 12 11 11 11 11 11 11 11 10 10 10 10 10 9 9 9 9 9 8 8
15 14 14 14 14 14 14 14 13 13 13 13 13 13 13 12 12 12 12 12 12 12 11 11 11 11 11 11 10 10 10 10 10 10 10 9 9 9 9 9 8 8 8
Wind_Speed
5 5 4 4 5 5 4 3 3 2 2 3 3 4 6 8 10 10 11 14 14 14 14 14 14 13 13 12 12 12 11 11 10 10 10 10 10 9 9 9 9 8 8
6 5 4 4 5 6 6 5 4 3 2 2 2 3 5 8 10 11 11 13 14 14 15 14 14 14 13 13 13 12 12 12 11 11 11 10 10 10 10 10 10 9 9
8 6 4 4 5 6 5 3 3 2 2 2 2 3 4 6 8 10 11 11 12 14 15 15 15 15 14 14 14 13 13 13 12 12 12 12 11 11 11 10 10 10 11
8 6 3 3 5 5 4 2 2 1 1 1 1 2 3 5 7 9 11 11 11 11 14 16 16 16 16 15 15 14 14 14 14 14 13 13 13 13 12 12 12 12 12
8 6 3 3 4 3 2 3 2 2 2 1 2 2 2 3 5 7 8 10 12 12 13 14 16 17 17 16 16 15 16 16 16 15 15 15 14 14 14 14 13 13 13
7 6 4 3 3 2 1 2 2 2 2 2 2 1 1 2 3 4 6 8 10 12 12 12 12 13 15 16 16 16 16 16 16 16 16 16 16 15 15 15 15 14 14
6 6 3 2 2 2 3 3 2 2 1 1 1 1 2 2 2 3 3 4 6 9 10 11 11 10 10 14 14 14 15 15 16 16 16 16 16 16 16 16 16 15 15
6 6 4 3 3 2 2 2 2 2 1 2 3 1 1 3 2 2 2 3 4 5 6 10 10 10 10 9 11 14 15 15 15 15 15 15 15 16 16 16 16 16 15
6 5 5 4 4 3 3 3 3 3 2 2 2 4 3 3 2 2 1 1 2 3 3 6 8 10 10 9 9 11 14 15 15 14 13 13 13 13 13 13 13 13 13
5 5 5 5 4 3 4 4 3 3 3 2 2 2 3 4 3 1 2 1 1 2 2 3 4 6 8 8 9 10 12 12 12 11 10 10 10 10 9 9 9 9 9
3 4 5 4 4 3 3 3 3 3 3 3 3 2 2 1 2 3 2 2 1 0 1 2 2 3 5 6 6 7 9 10 10 9 8 7 7 7 8 7 7 7 7
1 2 3 3 3 3 3 3 3 3 3 3 3 3 3 2 3 3 3 2 1 1 0 1 1 2 3 3 4 4 5 6 7 7 7 5 4 4 4 5 4 4 4
1 2 2 2 2 3 3 3 3 3 3 3 3 3 3 3 3 3 3 2 2 1 0 1 0 2 3 3 4 5 5 6 6 6 6 5 4 4 4 4 3 3 2
2 2 2 2 2 2 3 2 2 2 2 3 3 3 2 2 2 3 3 3 2 1 1 1 1 2 3 4 4 6 5 6 7 7 7 6 6 5 5 5 5 4 4
2 1 2 1 1 1 1 2 1 2 2 2 2 2 2 2 1 2 3 4 4 3 3 2 1 1 3 4 5 6 5 6 7 7 7 7 7 7 7 6 6 6 5
1 1 1 1 1 1 1 2 1 1 2 1 1 1 1 1 1 1 2 2 3 4 3 2 1 1 3 4 5 6 6 6 7 8 8 8 8 8 7 7 6 6 5
1 1 2 2 1 1 1 1 1 1 2 1 1 1 1 0 0 0 1 1 1 3 3 1 0 1 2 3 4 5 5 5 6 7 8 8 8 8 8 7 6 6 5
1 1 2 2 2 1 1 1 1 1 2 2 1 1 0 0 0 0 1 1 2 2 4 3 1 1 1 3 3 3 4 4 6 7 8 8 8 8 8 7 6 6 6
2 2 2 2 2 2 1 1 1 1 1 2 2 1 0 1 0 0 1 1 1 2 2 3 2 1 1 2 2 2 2 2 4 6 7 7 7 6 6 6 6 5 5
2 2 2 2 1 2 2 1 2 3 2 2 1 1 1 1 1 0 1 1 2 2 3 3 2 2 1 1 2 2 2 1 1 3 5 5 6 6 6 5 5 5 4
3 2 3 3 2 2 2 2 2 3 3 2 2 2 2 3 3 2 2 2 3 3 3 3 2 2 1 2 2 2 3 2 1 2 2 2 3 3 3 4 5 5 5
2 3 3 3 3 2 2 4 4 3 2 3 3 2 3 4 5 5 5 4 4 4 3 2 2 2 3 2 2 3 3 3 2 2 3 2 3 2 3 5 6 5 5
2 3 2 3 2 2 3 4 4 3 3 2 2 2 3 3 4 3 5 6 5 4 3 4 3 3 3 3 4 4 4 4 3 3 4 2 2 3 4 6 8 8 8
2 2 2 2 2 2 3 4 4 4 3 3 2 3 3 2 2 3 4 4 4 3 2 2 2 3 3 3 4 4 4 2 1 1 4 2 2 3 3 5 8 8 8
2 2 2 2 2 2 3 3 4 3 3 3 2 2 3 3 3 5 5 4 3 3 3 3 2 2 2 4 4 3 3 3 1 1 1 2 2 1 1 2 7 9 9
3 2 2 2 2 2 2 4 5 3 3 2 2 3 3 3 4 5 4 3 2 1 2 3 3 3 2 2 3 3 4 3 2 2 2 3 2 2 1 2 3 6 7
Wind_Direction
166 171 180 193 207 204 197 207 224 227 238 249 211 171 154 158 166 171 178 180 181 181 180 180 180 182 182 183 185 185 185 186 186 187 188 188 187 188 191 191 191 190 192
167 171 177 192 209 212 206 203 207 205 209 195 188 170 165 167 172 178 181 186 189 189 189 190 190 191 191 193 194 194 195 195 196 196 198 199 198 200 202 205 205 204 203
166 168 173 187 204 206 205 196 189 177 182 183 183 188 173 178 179 181 183 187 192 197 198 198 199 199 200 201 202 203 203 205 205 205 205 206 208 208 211 212 213 215 213
168 163 167 191 201 190 184 182 173 154 175 185 196 208 187 182 185 187 188 191 194 199 205 207 207 207 208 209 208 209 210 212 213 212 213 212 213 215 217 218 219 221 219
170 167 177 190 189 177 175 187 172 170 181 214 220 218 211 198 196 193 193 196 197 200 204 209 212 213 215 216 216 215 216 217 217 217 219 219 219 220 221 222 223 223 223
179 172 180 187 182 158 176 169 167 175 184 202 224 239 252 223 201 197 200 198 201 206 209 209 212 217 219 221 222 221 221 221 221 222 224 225 225 225 226 226 227 227 227
187 177 175 177 173 176 196 184 159 166 207 171 112 353 338 300 230 214 204 195 197 202 204 204 205 210 218 224 227 227 226 225 225 225 226 227 227 227 229 229 229 229 229
194 189 178 183 187 182 183 182 160 163 214 167 149 129 333 333 321 247 215 207 205 193 194 200 199 202 206 210 222 227 231 231 230 230 228 228 230 229 230 231 233 233 231
199 193 187 184 187 180 193 202 182 172 201 232 176 161 168 222 277 319 283 217 190 186 199 195 198 207 207 208 218 226 231 234 233 231 229 228 227 229 230 231 232 232 232
202 197 197 196 194 187 195 208 192 185 183 216 234 209 188 174 176 272 319 310 204 198 204 204 202 206 207 209 215 219 225 228 228 229 226 222 219 219 219 223 227 227 224
218 211 200 194 195 194 203 205 193 193 188 191 200 205 205 195 173 176 251 297 346 307 196 197 186 182 194 204 211 214 218 224 225 222 220 218 218 219 219 225 225 225 221
248 242 201 188 194 197 202 201 199 199 199 188 190 190 184 187 194 183 212 230 237 291 353 177 174 169 175 179 179 176 192 207 199 194 195 196 194 204 194 194 205 213 215
234 234 197 184 196 202 198 195 192 207 200 195 199 207 206 212 194 183 186 212 229 254 292 11 137 137 139 136 147 153 153 153 160 167 168 169 165 158 149 148 145 143 141
228 231 198 190 201 195 193 189 187 205 197 207 221 212 206 222 201 189 182 177 202 254 242 235 43 105 127 132 138 150 146 154 158 154 152 148 144 138 132 126 120 108 100
215 195 174 171 184 185 173 152 170 208 195 204 215 205 203 231 219 206 185 175 172 203 235 226 189 146 132 129 139 139 144 147 150 150 147 142 138 132 125 120 113 109 103
195 168 147 136 145 164 154 142 158 207 177 201 193 168 200 245 243 219 190 185 182 183 206 214 201 162 136 127 126 128 131 134 142 145 143 142 139 134 129 123 117 110 105
149 130 129 115 120 137 165 163 189 169 171 180 174 156 188 155 157 228 142 149 157 151 169 206 165 129 131 134 122 118 120 122 128 140 140 138 137 132 127 123 118 113 106
84 91 103 104 112 116 135 156 181 180 175 162 162 141 182 138 107 114 140 153 163 157 160 174 183 162 153 155 144 132 122 123 123 129 136 138 137 134 131 126 118 110 105
82 73 85 95 100 100 106 115 127 134 136 135 135 139 157 114 116 95 121 132 148 138 145 156 174 160 140 147 122 123 123 102 124 130 136 141 143 141 139 132 126 120 120
102 84 75 81 79 89 94 90 98 96 93 93 97 110 101 113 141 136 125 112 102 98 109 132 144 143 149 145 136 149 137 137 150 131 136 143 146 150 152 148 149 147 144
112 102 83 68 60 62 64 99 123 114 101 86 72 67 73 90 83 91 108 116 116 111 112 128 144 139 158 170 190 188 172 158 190 173 153 159 155 164 177 180 177 174 169
105 101 97 89 68 48 71 96 108 113 107 100 89 70 62 66 66 70 80 100 126 134 143 150 170 181 198 202 188 173 162 157 208 203 169 200 183 209 213 208 203 197 195
103 105 104 98 88 60 89 104 104 108 99 101 108 100 83 61 66 70 65 67 71 90 134 158 168 195 193 196 174 176 185 185 199 188 162 194 193 220 227 220 212 212 213
112 108 101 101 94 72 93 107 104 95 85 78 87 104 102 76 61 88 83 71 58 46 48 116 174 206 203 195 187 187 188 175 133 149 147 172 198 219 228 222 218 221 222
101 102 102 104 97 55 70 97 106 99 86 63 56 77 102 95 83 99 95 87 68 28 47 79 102 137 145 146 147 121 126 138 178 227 175 165 186 197 229 230 228 223 224
112 110 92 93 103 78 75 99 113 112 106 87 59 56 76 98 97 100 104 105 98 7 18 30 36 41 69 111 137 148 154 152 163 224 208 163 167 151 220 255 231 229 231
Height
1561 1562 1562 1563 1564 1565 1566 1566 1567 1567 1568 1568 1569 1569 1569 1570 1570 1571 1571 1571 1572 1572 1572 1573 1574 1575 1575 1576 1577 1577 1578 1579 1579 1580 1581 1581 1582 1583 1583 1583 1584 1584 1584
1561 1562 1562 1563 1564 1565 1566 1566 1567 1568 1568 1569 1569 1569 1570 1570 1570 1571 1571 1572 1572 1572 1572 1573 1574 1574 1575 1575 1576 1577 1577 1578 1579 1579 1580 1580 1581 1581 1582 1582 1583 1583 1583
1561 1562 1562 1563 1563 1564 1565 1566 1566 1567 1568 1568 1569 1569 1569 1570 1570 1571 1571 1571 1571 1572 1572 1572 1573 1573 1574 1575 1575 1576 1576 1577 1577 1578 1578 1579 1580 1580 1581 1581 1581 1582 1582
1561 1561 1562 1562 1563 1564 1564 1565 1566 1566 1567 1567 1568 1568 1569 1569 1570 1570 1570 1571 1571 1571 1571 1572 1572 1573 1573 1573 1574 1574 1575 1575 1576 1576 1577 1577 1578 1578 1579 1579 1579 1580 1580
1560 1560 1561 1562 1562 1563 1563 1564 1564 1565 1566 1566 1567 1567 1568 1568 1568 1569 1569 1569 1570 1570 1570 1570 1571 1571 1571 1572 1572 1572 1573 1573 1574 1574 1575 1575 1575 1576 1576 1577 1577 1578 1578
1559 1559 1560 1561 1561 1562 1562 1563 1563 1564 1564 1565 1566 1566 1566 1566 1567 1567 1567 1568 1568 1568 1568 1569 1569 1569 1569 1570 1570 1570 1571 1571 1572 1572 1572 1572 1573 1573 1574 1574 1574 1575 1575
1557 1558 1559 1559 1560 1560 1561 1562 1562 1562 1563 1563 1564 1564 1565 1565 1565 1565 1566 1566 1566 1566 1566 1566 1567 1567 1567 1567 1567 1568 1568 1568 1569 1569 1569 1570 1570 1570 1571 1571 1572 1572 1572
1556 1556 1557 1558 1558 1559 1559 1560 1560 1560 1561 1562 1562 1562 1563 1564 1563 1563 1563 1564 1564 1564 1564 1564 1564 1564 1565 1565 1565 1565 1565 1566 1565 1566 1566 1566 1567 1567 1567 1568 1568 1568 1569
1554 1555 1555 1556 1557 1557 1557 1558 1558 1558 1559 1560 1560 1561 1561 1560 1560 1561 1561 1561 1561 1561 1561 1562 1562 1562 1562 1562 1562 1562 1562 1563 1563 1563 1563 1563 1563 1564 1564 1564 1564 1565 1565
1552 1553 1553 1554 1555 1555 1555 1555 1556 1556 1556 1556 1557 1558 1558 1558 1559 1558 1559 1559 1559 1559 1559 1559 1559 1559 1559 1559 1559 1559 1559 1560 1560 1560 1560 1560 1560 1560 1560 1561 1561 1561 1561
1550 1551 1551 1552 1552 1552 1553 1553 1553 1553 1553 1554 1554 1554 1555 1555 1556 1556 1555 1556 1556 1556 1556 1556 1556 1556 1556 1556 1556 1556 1556 1556 1556 1556 1556 1556 1556 1557 1557 1557 1557 1557 1557
1548 1549 1549 1549 1550 1550 1550 1550 1550 1550 1551 1551 1551 1552 1552 1552 1552 1553 1552 1553 1553 1553 1553 1553 1553 1553 1553 1553 1553 1553 1553 1553 1553 1553 1553 1553 1553 1553 1553 1553 1553 1553 1553
1546 1546 1547 1547 1547 1547 1547 1547 1547 1547 1548 1548 1549 1549 1549 1549 1550 1550 1550 1550 1550 1550 1551 1551 1551 1551 1551 1550 1550 1550 1550 1550 1550 1550 1550 1550 1550 1550 1550 1550 1550 1550 1550
1545 1545 1545 1545 1544 1544 1544 1545 1545 1545 1545 1545 1546 1546 1546 1547 1547 1547 1547 1547 1547 1548 1547 1548 1548 1548 1548 1548 1547 1547 1547 1548 1547 1548 1548 1547 1547 1547 1547 1547 1547 1547 1547
1543 1543 1542 1542 1542 1542 1542 1542 1542 1542 1542 1542 1543 1543 1543 1543 1543 1544 1544 1544 1545 1544 1544 1545 1545 1545 1545 1545 1545 1545 1545 1545 1545 1545 1545 1544 1544 1544 1544 1544 1544 1544 1544
1541 1541 1541 1540 1540 1540 1540 1540 1539 1539 1539 1540 1540 1540 1540 1540 1540 1540 1541 1541 1541 1542 1541 1542 1542 1543 1543 1542 1542 1542 1542 1542 1542 1543 1542 1542 1542 1542 1542 1542 1542 1542 1541
1540 1539 1539 1539 1538 1538 1537 1537 1537 1537 1537 1537 1537 1537 1537 1537 1537 1537 1538 1538 1539 1539 1538 1539 1540 1540 1540 1540 1540 1540 1540 1540 1540 1540 1540 1540 1540 1540 1540 1540 1540 1539 1539
1539 1539 1538 1537 1537 1536 1536 1535 1535 1535 1535 1535 1534 1534 1534 1534 1535 1535 1535 1535 1536 1536 1536 1536 1536 1537 1537 1538 1538 1537 1538 1538 1538 1538 1538 1538 1538 1538 1538 1538 1538 1538 1538
1538 1537 1536 1536 1535 1535 1534 1534 1534 1533 1533 1532 1532 1532 1532 1532 1532 1533 1533 1533 1533 1533 1534 1533 1534 1534 1534 1535 1535 1535 1535 1536 1536 1536 1536 1536 1537 1537 1537 1536 1536 1536 1536
1537 1536 1535 1534 1534 1534 1533 1533 1532 1532 1531 1531 1530 1530 1530 1531 1531 1531 1531 1531 1531 1531 1531 1531 1531 1532 1532 1532 1533 1533 1533 1534 1534 1534 1535 1535 1535 1535 1535 1535 1535 1535 1534
1536 1535 1534 1534 1533 1533 1532 1531 1531 1531 1530 1530 1529 1529 1529 1529 1529 1529 1529 1529 1529 1529 1529 1529 1529 1529 1529 1530 1530 1530 1531 1531 1532 1533 1533 1533 1533 1533 1534 1533 1533 1533 1533
1535 1534 1533 1533 1532 1532 1531 1531 1530 1530 1529 1529 1528 1528 1527 1527 1527 1527 1527 1527 1527 1527 1527 1527 1527 1527 1527 1527 1527 1528 1528 1528 1529 1531 1531 1531 1532 1532 1532 1532 1532 1532 1531
1534 1533 1533 1532 1532 1531 1531 1530 1530 1529 1529 1528 1528 1527 1527 1526 1526 1526 1526 1526 1526 1526 1526 1526 1525 1525 1525 1525 1525 1525 1526 1526 1527 1528 1528 1529 1529 1529 1530 1530 1530 1530 1530
1533 1533 1532 1532 1531 1531 1530 1530 1529 1529 1528 1528 1527 1527 1526 1526 1525 1525 1524 1524 1524 1524 1524 1524 1524 1524 1523 1523 1523 1523 1524 1525 1525 1526 1526 1526 1527 1527 1527 1528 1528 1528 1528
1532 1532 1531 1531 1530 1530 1530 1529 1529 1528 1527 1527 1527 1527 1526 1525 1525 1524 1524 1523 1523 1523 1523 1523 1523 1522 1522 1522 1522 1522 1522 1522 1522 1523 1524 1524 1524 1525 1525 1525 1525 1525 1525
1532 1531 1531 1530 1530 1529 1529 1528 1528 1527 1526 1526 1526 1526 1526 1525 1525 1525 1524 1523 1523 1522 1522 1522 1522 1521 1521 1521 1521 1521 1520 1520 1520 1521 1521 1522 1522 1522 1523 1523 1523 1523 1523